Regional Weather Roundup
Issued by NWS

Home | Current Version | Previous Version | Text Only | Print | Product List | Glossary On
Versions: 1 2 3 4 5 6 7 8 9 10 11 12 13 14 15 16 17 18 19 20 21 22 23 24 25 26 27 28 29 30 31 32 33 34 35 36 37 38 39 40 41 42 43 44 45 46 47 48 49 50
707
ASUS45 KSLC 110210
RWRUT

UTAH REGIONAL WEATHER ROUNDUP
NATIONAL WEATHER SERVICE SALT LAKE CITY UT
700 PM MST WED FEB 10 2016

UTZ001>011-023>025-110300-

NORTHERN UTAH

CITY           SKY/WX    TMP DP  RH WIND       PRES   REMARKS
BRIGHAM CITY   CLOUDY    28  26  93 CALM      30.48S
HILL AFB       CLOUDY    29  27  92 NE2       30.44R FOG
LOGAN          FOG       22  22 100 CALM      30.46S VSB 1/4
OGDEN          CLOUDY    28  27  96 N5        30.45S FOG     WCI  23
PROVO AIRPORT  CLEAR     25  19  80 CALM      30.44S HAZE
SALT LAKE CITY CLOUDY    30  27  88 N6        30.47R FOG     WCI  24
VERNAL         CLOUDY    21  16  81 N3        30.40R
WENDOVER       CLOUDY    30  27  86 CALM      30.46S
HEBER CITY     PTCLDY    18  12  79 CALM      30.40R
WEST JORDAN    CLOUDY    28  28 100 NW3       30.46R

$$

UTZ012>022-026-027-110300-

SOUTHERN/CENTRAL UTAH

CITY           SKY/WX    TMP DP  RH WIND       PRES   REMARKS
BLANDING       CLEAR     35  28  73 N5        30.42F WCI  31
BRYCE CANYON   CLEAR     25  14  63 W9        30.42R WCI  15
CEDAR CITY     PTCLDY    29  24  82 CALM      30.37R
DELTA          MOCLDY    18  17  95 SW5       30.44R WCI  11
HANKSVILLE     CLEAR     32  30  93 N3        30.41R
MILFORD        MOCLDY    15  12  88 N6        30.40R WCI   6
MOAB/CYNLANDS  CLEAR     32  27  81 W6        30.37R WCI  26
PRICE          CLEAR     30  21  69 NE8       30.37S WCI  22
ST GEORGE      PTCLDY    57  27  30 CALM      30.28R
KANAB          CLEAR     45  32  61 NE6       30.36R

$$

REGIONAL REPORTS     COLORADO/ARIZONA

CITY           SKY/WX    TMP DP  RH WIND       PRES   REMARKS
CRAIG, CO      CLOUDY    18  14  84 CALM      30.37R
GRAND JUNCTION CLOUDY    31  28  89 N3        30.39R
RIFLE          CLOUDY    31  21  66 CALM      30.38R
MONTROSE       CLOUDY    34  24  67 SE3       30.41R
CORTEZ         CLOUDY    32  25  75 NE8       30.36R WCI  25
PAGE, AZ       CLEAR     48  29  47 SW5       30.33R
GRAND CANYON   CLEAR     36  18  48 NE3       30.39R
KINGMAN        CLEAR     52  32  46 SE9       30.26R
FLAGSTAFF      PTCLDY    40  20  44 CALM      30.40R

$$

REGIONAL REPORTS    NEVADA/IDAHO/WYOMING

CITY           SKY/WX    TMP DP  RH WIND       PRES   REMARKS
LAS VEGAS, NV  PTCLDY    67  22  18 CALM      30.19R
ELY            PTCLDY    28  22  78 CALM      30.41R
ELKO           MOCLDY    25  17  72 NE3       30.44R
POCATELLO, ID  CLOUDY    26  23  88 N5        30.40F WCI  20
BURLEY         CLEAR     31  27  85 NW5       30.36R WCI  26
EVANSTON, WY   CLOUDY    33  16  49 SW8       30.41R WCI  26
ROCK SPRINGS   CLOUDY    36  21  54 W16       30.31F WCI  26

$$




USA.gov is the U.S. government's official web portal to all federal, state and local government web resources and services.